QPF
0.00 0.00 0.01 0.00 0.00 0.00 0.00 0.00 0.00 0.00 0.00 0.00 0.00 0.00 0.00 0.00 0.00 0.00 0.00 0.00 0.00 0.00 0.00 0.00 0.00 0.00 0.00 0.00 0.00 0.00 0.00 0.00 0.00 0.00 0.00 0.01 0.01 0.01 0.00 0.00 0.00 0.00 0.02
0.00 0.00 0.00 0.00 0.00 0.00 0.00 0.00 0.00 0.00 0.00 0.00 0.00 0.00 0.00 0.00 0.00 0.00 0.00 0.00 0.00 0.00 0.00 0.00 0.01 0.04 0.06 0.01 0.00 0.01 0.00 0.00 0.00 0.00 0.00 0.00 0.00 0.00 0.02 0.00 0.00 0.00 0.00
0.00 0.00 0.00 0.00 0.00 0.00 0.00 0.00 0.00 0.00 0.00 0.00 0.00 0.00 0.00 0.00 0.00 0.00 0.00 0.00 0.00 0.00 0.00 0.05 0.07 0.06 0.04 0.01 0.00 0.01 0.00 0.01 0.01 0.00 0.00 0.00 0.00 0.02 0.01 0.00 0.00 0.00 0.00
0.00 0.00 0.00 0.00 0.00 0.00 0.00 0.00 0.00 0.00 0.00 0.00 0.00 0.00 0.00 0.00 0.00 0.00 0.00 0.00 0.00 0.00 0.00 0.01 0.01 0.00 0.00 0.00 0.00 0.00 0.00 0.00 0.00 0.00 0.00 0.00 0.03 0.09 0.07 0.00 0.00 0.00 0.00
0.00 0.00 0.00 0.00 0.00 0.00 0.00 0.00 0.00 0.00 0.00 0.00 0.00 0.00 0.00 0.00 0.00 0.00 0.00 0.00 0.00 0.00 0.00 0.00 0.00 0.00 0.00 0.00 0.01 0.04 0.01 0.00 0.00 0.00 0.00 0.00 0.02 0.07 0.01 0.00 0.00 0.00 0.00
0.00 0.00 0.00 0.00 0.00 0.00 0.00 0.00 0.00 0.01 0.00 0.00 0.00 0.00 0.00 0.00 0.00 0.00 0.00 0.00 0.00 0.00 0.00 0.00 0.00 0.00 0.00 0.00 0.01 0.03 0.01 0.02 0.00 0.00 0.00 0.00 0.00 0.01 0.01 0.00 0.00 0.01 0.06
0.00 0.00 0.00 0.00 0.00 0.00 0.01 0.01 0.01 0.01 0.00 0.00 0.00 0.00 0.01 0.00 0.00 0.00 0.00 0.00 0.01 0.01 0.00 0.00 0.00 0.00 0.00 0.00 0.00 0.00 0.00 0.03 0.01 0.00 0.00 0.00 0.00 0.02 0.01 0.00 0.00 0.00 0.02
0.00 0.00 0.00 0.00 0.00 0.00 0.00 0.00 0.00 0.00 0.00 0.00 0.00 0.00 0.00 0.00 0.00 0.00 0.05 0.03 0.00 0.00 0.00 0.00 0.01 0.00 0.00 0.00 0.00 0.00 0.00 0.00 0.00 0.00 0.00 0.00 0.00 0.00 0.00 0.00 0.00 0.00 0.00
0.00 0.00 0.00 0.00 0.00 0.00 0.00 0.00 0.00 0.00 0.00 0.00 0.00 0.00 0.00 0.00 0.00 0.00 0.00 0.00 0.01 0.00 0.00 0.00 0.00 0.00 0.00 0.00 0.01 0.00 0.00 0.01 0.00 0.00 0.00 0.00 0.01 0.00 0.00 0.00 0.00 0.00 0.00
0.00 0.00 0.00 0.00 0.00 0.00 0.00 0.00 0.00 0.00 0.00 0.00 0.00 0.00 0.00 0.00 0.00 0.00 0.00 0.00 0.00 0.00 0.00 0.00 0.00 0.00 0.00 0.02 0.02 0.02 0.01 0.01 0.00 0.00 0.00 0.00 0.00 0.00 0.00 0.00 0.00 0.00 0.00
0.00 0.00 0.00 0.00 0.00 0.00 0.00 0.00 0.00 0.00 0.00 0.00 0.00 0.00 0.05 0.02 0.04 0.06 0.01 0.00 0.00 0.00 0.00 0.00 0.00 0.00 0.00 0.02 0.03 0.04 0.01 0.00 0.00 0.00 0.00 0.00 0.00 0.00 0.00 0.00 0.01 0.00 0.00
0.00 0.00 0.00 0.00 0.00 0.00 0.00 0.00 0.00 0.00 0.00 0.00 0.00 0.00 0.02 0.00 0.01 0.02 0.15 0.08 0.00 0.00 0.00 0.00 0.00 0.01 0.04 0.05 0.04 0.04 0.04 0.06 0.03 0.00 0.00 0.01 0.00 0.00 0.00 0.01 0.03 0.04 0.00
0.00 0.00 0.00 0.00 0.00 0.00 0.00 0.00 0.00 0.00 0.00 0.00 0.00 0.00 0.00 0.00 0.00 0.00 0.02 0.16 0.03 0.00 0.00 0.00 0.01 0.03 0.04 0.04 0.01 0.00 0.01 0.05 0.01 0.01 0.01 0.02 0.00 0.00 0.00 0.00 0.01 0.04 0.01
0.00 0.00 0.00 0.00 0.00 0.00 0.00 0.00 0.00 0.00 0.00 0.00 0.00 0.00 0.00 0.00 0.00 0.00 0.00 0.00 0.00 0.02 0.03 0.01 0.01 0.00 0.00 0.01 0.12 0.04 0.02 0.02 0.00 0.00 0.00 0.05 0.01 0.00 0.00 0.00 0.00 0.01 0.00
0.00 0.00 0.00 0.00 0.00 0.00 0.00 0.00 0.00 0.00 0.00 0.00 0.00 0.00 0.00 0.00 0.00 0.00 0.00 0.00 0.00 0.00 0.06 0.08 0.02 0.03 0.13 0.02 0.07 0.01 0.00 0.00 0.01 0.00 0.00 0.03 0.03 0.01 0.00 0.00 0.02 0.01 0.00
0.00 0.00 0.00 0.00 0.00 0.00 0.00 0.00 0.00 0.00 0.00 0.00 0.00 0.00 0.01 0.00 0.00 0.00 0.00 0.00 0.00 0.00 0.00 0.03 0.10 0.05 0.15 0.06 0.03 0.02 0.00 0.01 0.01 0.01 0.00 0.00 0.02 0.03 0.08 0.02 0.03 0.04 0.02
0.00 0.02 0.03 0.00 0.00 0.00 0.00 0.00 0.00 0.00 0.00 0.00 0.00 0.00 0.01 0.00 0.00 0.00 0.00 0.00 0.00 0.00 0.00 0.05 0.12 0.05 0.05 0.03 0.02 0.01 0.00 0.00 0.00 0.01 0.00 0.00 0.01 0.05 0.06 0.10 0.07 0.11 0.03
0.01 0.06 0.08 0.03 0.00 0.00 0.00 0.00 0.00 0.00 0.00 0.00 0.00 0.00 0.00 0.00 0.00 0.00 0.00 0.00 0.00 0.00 0.00 0.01 0.12 0.17 0.15 0.04 0.08 0.03 0.00 0.00 0.00 0.06 0.02 0.00 0.00 0.03 0.07 0.16 0.10 0.07 0.07
0.04 0.13 0.13 0.07 0.01 0.00 0.00 0.00 0.00 0.00 0.00 0.00 0.00 0.00 0.00 0.00 0.00 0.00 0.00 0.00 0.00 0.00 0.01 0.02 0.03 0.07 0.03 0.00 0.01 0.02 0.01 0.00 0.00 0.02 0.04 0.00 0.00 0.01 0.08 0.05 0.05 0.09 0.04
0.05 0.05 0.02 0.02 0.01 0.00 0.00 0.00 0.00 0.00 0.00 0.00 0.00 0.00 0.00 0.00 0.00 0.00 0.00 0.00 0.00 0.04 0.00 0.02 0.02 0.00 0.00 0.00 0.00 0.00 0.03 0.09 0.02 0.04 0.02 0.00 0.01 0.01 0.04 0.09 0.05 0.04 0.06
0.01 0.02 0.02 0.03 0.03 0.02 0.00 0.00 0.00 0.00 0.00 0.00 0.00 0.00 0.00 0.00 0.00 0.00 0.00 0.00 0.00 0.01 0.00 0.01 0.05 0.00 0.00 0.00 0.00 0.00 0.01 0.05 0.04 0.04 0.02 0.00 0.00 0.01 0.01 0.01 0.01 0.02 0.02
0.00 0.00 0.00 0.01 0.02 0.06 0.04 0.00 0.00 0.00 0.00 0.00 0.00 0.00 0.00 0.00 0.00 0.00 0.00 0.00 0.00 0.00 0.00 0.00 0.01 0.00 0.00 0.00 0.00 0.00 0.00 0.00 0.01 0.00 0.00 0.00 0.00 0.00 0.00 0.00 0.00 0.00 0.00
0.00 0.00 0.00 0.00 0.00 0.00 0.03 0.03 0.00 0.00 0.00 0.00 0.00 0.00 0.00 0.00 0.00 0.00 0.00 0.00 0.00 0.00 0.00 0.00 0.00 0.00 0.00 0.00 0.00 0.00 0.00 0.00 0.00 0.01 0.03 0.00 0.00 0.00 0.00 0.00 0.00 0.00 0.00
0.00 0.00 0.00 0.00 0.00 0.00 0.00 0.01 0.00 0.00 0.00 0.00 0.00 0.00 0.00 0.00 0.00 0.00 0.00 0.00 0.00 0.00 0.00 0.03 0.02 0.02 0.00 0.02 0.01 0.00 0.00 0.00 0.00 0.02 0.03 0.00 0.00 0.00 0.00 0.00 0.00 0.00 0.00
0.00 0.00 0.00 0.00 0.00 0.00 0.00 0.00 0.00 0.00 0.00 0.00 0.00 0.00 0.00 0.00 0.00 0.00 0.00 0.00 0.00 0.00 0.00 0.00 0.00 0.06 0.03 0.02 0.00 0.00 0.00 0.00 0.01 0.01 0.05 0.03 0.00 0.00 0.00 0.00 0.00 0.00 0.00
0.00 0.00 0.00 0.00 0.00 0.00 0.00 0.00 0.00 0.00 0.00 0.00 0.00 0.00 0.01 0.00 0.00 0.00 0.00 0.00 0.00 0.00 0.00 0.00 0.01 0.01 0.08 0.15 0.07 0.01 0.00 0.00 0.03 0.02 0.02 0.06 0.04 0.01 0.01 0.00 0.00 0.00 0.00
MSLP
1013.14 1013.32 1013.52 1013.74 1014.03 1014.16 1014.43 1014.66 1014.74 1015.04 1015.30 1015.49 1015.56 1015.62 1015.66 1015.77 1015.90 1015.97 1016.12 1016.14 1016.22 1016.31 1016.34 1016.44 1016.60 1016.78 1016.95 1016.89 1016.95 1017.19 1017.45 1017.51 1017.57 1017.70 1017.79 1017.87 1018.00 1018.08 1018.10 1018.25 1018.44 1018.54 1018.60
1012.42 1013.11 1013.48 1013.76 1014.05 1014.29 1014.55 1014.84 1014.95 1015.17 1015.45 1015.57 1015.69 1015.78 1015.83 1015.91 1016.01 1016.13 1016.20 1016.32 1016.37 1016.44 1016.56 1016.70 1016.87 1017.06 1017.09 1017.21 1017.35 1017.51 1017.65 1017.65 1017.83 1017.88 1018.01 1018.15 1018.22 1018.33 1018.32 1018.46 1018.73 1018.85 1018.95
1012.63 1013.00 1013.41 1013.78 1014.10 1014.44 1014.67 1015.01 1015.22 1015.34 1015.61 1015.80 1015.91 1015.99 1016.03 1016.12 1016.22 1016.28 1016.34 1016.49 1016.53 1016.63 1016.81 1016.86 1017.04 1017.19 1017.35 1017.45 1017.60 1017.73 1017.88 1017.97 1018.01 1018.13 1018.29 1018.44 1018.55 1018.63 1018.68 1018.85 1018.98 1019.16 1019.30
1012.61 1013.12 1013.46 1013.90 1014.21 1014.58 1014.86 1015.09 1015.36 1015.52 1015.72 1015.94 1016.08 1016.14 1016.25 1016.30 1016.40 1016.42 1016.57 1016.65 1016.74 1016.82 1016.90 1017.06 1017.18 1017.32 1017.50 1017.72 1017.89 1018.06 1018.19 1018.22 1018.33 1018.46 1018.66 1018.68 1018.70 1018.95 1018.99 1019.26 1019.38 1019.48 1019.64
1012.92 1013.32 1013.68 1014.03 1014.37 1014.71 1015.02 1015.27 1015.46 1015.65 1015.83 1015.97 1016.13 1016.30 1016.41 1016.43 1016.52 1016.64 1016.70 1016.79 1016.95 1017.06 1017.14 1017.25 1017.37 1017.54 1017.65 1017.92 1018.11 1018.29 1018.50 1018.53 1018.77 1018.98 1019.04 1019.16 1019.23 1019.27 1019.34 1019.60 1019.78 1019.90 1020.08
1013.17 1013.54 1013.78 1014.15 1014.54 1014.81 1015.16 1015.43 1015.66 1015.85 1015.99 1016.05 1016.16 1016.36 1016.51 1016.65 1016.70 1016.79 1016.85 1016.95 1017.15 1017.30 1017.33 1017.52 1017.61 1017.76 1017.96 1018.15 1018.33 1018.59 1018.67 1018.82 1019.11 1019.34 1019.39 1019.36 1019.50 1019.54 1019.62 1019.79 1020.02 1020.22 1020.37
1013.40 1013.60 1013.92 1014.29 1014.58 1014.86 1015.16 1015.40 1015.68 1015.88 1016.14 1016.14 1016.21 1016.38 1016.51 1016.73 1016.83 1016.92 1016.94 1017.09 1017.27 1017.51 1017.67 1017.70 1017.82 1018.01 1018.13 1018.32 1018.51 1018.74 1018.96 1019.07 1019.43 1019.73 1019.83 1019.72 1019.74 1019.86 1019.97 1020.08 1020.30 1020.53 1020.82
1013.26 1013.71 1014.04 1014.43 1014.61 1014.85 1015.09 1015.35 1015.64 1015.88 1016.12 1016.27 1016.31 1016.49 1016.61 1016.82 1016.91 1017.08 1017.11 1017.26 1017.41 1017.70 1017.85 1017.91 1017.95 1018.22 1018.40 1018.65 1018.89 1018.94 1018.99 1019.25 1019.61 1019.72 1019.83 1020.04 1020.13 1020.18 1020.22 1020.38 1020.57 1020.75 1021.02
1013.00 1013.62 1014.11 1014.49 1014.71 1014.87 1015.12 1015.35 1015.66 1015.90 1016.11 1016.31 1016.43 1016.63 1016.79 1016.93 1017.04 1017.19 1017.32 1017.40 1017.55 1017.78 1017.92 1017.99 1018.10 1018.38 1018.60 1018.84 1018.99 1018.99 1018.92 1019.14 1019.90 1020.02 1020.03 1020.06 1020.31 1020.54 1020.57 1020.67 1020.84 1020.98 1021.23
1013.42 1013.65 1013.96 1014.39 1014.74 1014.98 1015.21 1015.38 1015.62 1015.90 1016.16 1016.28 1016.50 1016.70 1016.88 1017.07 1017.16 1017.25 1017.43 1017.57 1017.77 1017.88 1018.06 1018.19 1018.34 1018.48 1018.84 1019.03 1019.08 1019.18 1019.34 1019.45 1020.00 1020.16 1020.32 1020.43 1020.49 1020.68 1020.89 1021.01 1021.19 1021.32 1021.50
1013.78 1014.04 1014.15 1014.27 1014.71 1015.03 1015.26 1015.40 1015.58 1015.90 1016.13 1016.28 1016.44 1016.66 1016.93 1017.26 1017.36 1017.41 1017.58 1017.62 1017.78 1018.00 1018.21 1018.38 1018.51 1018.61 1018.70 1019.03 1019.25 1019.36 1019.52 1019.89 1020.12 1020.43 1020.51 1020.50 1020.63 1020.70 1020.93 1021.22 1021.42 1021.64 1021.75
1013.81 1014.15 1014.29 1014.34 1014.59 1015.01 1015.17 1015.42 1015.72 1015.93 1016.22 1016.42 1016.43 1016.60 1016.98 1017.22 1017.40 1017.56 1017.60 1017.64 1017.76 1018.03 1018.26 1018.54 1018.75 1018.70 1018.85 1019.50 1019.56 1019.66 1019.86 1019.93 1020.18 1020.57 1020.72 1020.66 1020.72 1020.82 1021.07 1021.35 1021.70 1021.84 1022.02
1013.21 1013.85 1014.12 1014.39 1014.56 1014.92 1015.07 1015.53 1015.80 1016.04 1016.35 1016.55 1016.47 1016.49 1016.75 1017.14 1017.36 1017.44 1017.80 1017.91 1017.99 1018.06 1018.37 1018.64 1018.77 1018.82 1019.10 1019.46 1019.77 1019.93 1020.07 1020.10 1020.41 1020.64 1020.68 1020.75 1020.75 1020.85 1021.16 1021.48 1021.79 1022.08 1022.26
1012.88 1013.18 1013.71 1014.08 1014.43 1014.71 1015.04 1015.40 1015.59 1015.79 1016.16 1016.51 1016.52 1016.56 1016.78 1017.06 1017.17 1017.32 1017.75 1017.91 1018.11 1018.29 1018.50 1018.67 1019.05 1019.05 1019.34 1019.37 1019.66 1020.03 1020.18 1020.22 1020.76 1020.84 1020.85 1020.96 1020.97 1020.95 1021.18 1021.51 1021.82 1022.03 1022.41
1012.22 1012.61 1013.25 1013.78 1014.15 1014.29 1014.75 1015.09 1015.41 1015.63 1015.77 1015.98 1016.29 1016.45 1016.54 1016.84 1016.95 1017.05 1017.53 1017.82 1018.03 1018.28 1018.56 1018.80 1019.04 1019.40 1019.52 1019.66 1019.87 1019.87 1019.87 1020.00 1020.51 1020.79 1021.01 1021.05 1021.08 1021.00 1021.11 1021.45 1021.77 1022.05 1022.45
1011.64 1012.02 1012.71 1013.22 1013.45 1013.66 1014.27 1014.58 1014.91 1015.26 1015.40 1015.72 1015.85 1016.08 1016.30 1016.35 1016.50 1016.82 1017.19 1017.60 1017.85 1018.01 1018.03 1018.39 1018.85 1019.19 1019.69 1019.78 1019.91 1019.78 1019.83 1020.15 1020.34 1020.59 1020.96 1021.03 1021.11 1021.21 1021.24 1021.46 1021.77 1022.18 1022.44
1010.66 1011.52 1012.40 1012.76 1013.08 1013.25 1013.48 1013.89 1014.30 1014.63 1014.91 1015.24 1015.44 1015.72 1015.90 1016.13 1016.34 1016.64 1016.91 1017.22 1017.46 1017.48 1017.67 1018.24 1018.70 1019.09 1019.53 1019.77 1019.97 1019.78 1019.94 1020.04 1020.18 1020.36 1020.83 1021.06 1021.01 1021.17 1021.34 1021.48 1021.79 1022.13 1022.42
1010.69 1011.50 1011.95 1012.28 1012.57 1012.87 1013.13 1013.32 1013.62 1014.19 1014.48 1014.70 1014.90 1015.30 1015.47 1015.68 1015.92 1016.33 1016.97 1017.14 1017.18 1017.33 1017.41 1017.94 1018.63 1019.16 1019.46 1019.64 1019.80 1019.93 1019.85 1019.94 1020.09 1020.28 1020.71 1021.02 1021.14 1021.21 1021.27 1021.54 1021.85 1022.31 1022.25
1010.29 1010.97 1011.61 1012.04 1012.13 1012.45 1012.75 1012.85 1013.08 1013.51 1013.91 1014.03 1014.34 1014.76 1015.13 1015.28 1015.60 1016.02 1016.54 1016.80 1016.90 1017.25 1017.61 1018.10 1018.74 1019.02 1019.34 1019.61 1019.69 1019.71 1019.94 1020.07 1020.09 1020.20 1020.47 1020.72 1020.96 1021.04 1021.29 1021.60 1021.91 1022.09 1022.20
1009.97 1010.27 1010.97 1011.34 1011.53 1012.02 1012.23 1012.75 1013.21 1013.45 1013.66 1013.55 1013.78 1014.20 1014.81 1015.06 1015.35 1015.74 1016.21 1016.50 1016.74 1017.22 1017.73 1018.18 1018.55 1018.79 1018.91 1019.18 1019.39 1019.54 1019.84 1019.94 1019.91 1019.99 1020.15 1020.44 1020.62 1020.83 1021.22 1021.54 1021.71 1022.00 1022.09
1009.35 1009.99 1010.62 1011.10 1011.42 1011.91 1012.33 1012.74 1013.10 1013.43 1013.53 1013.53 1013.61 1013.81 1014.30 1014.68 1015.09 1015.57 1015.98 1016.33 1016.45 1016.93 1017.29 1017.85 1018.33 1018.62 1019.00 1019.06 1019.46 1019.62 1019.51 1019.59 1019.80 1019.78 1019.84 1020.14 1020.41 1020.59 1021.04 1021.35 1021.52 1021.84 1021.89
1008.69 1009.34 1010.07 1010.60 1011.15 1011.58 1012.00 1012.12 1012.38 1012.71 1013.04 1013.24 1013.24 1013.59 1014.01 1014.36 1014.73 1015.13 1015.49 1016.02 1016.43 1016.76 1017.12 1017.47 1017.80 1018.45 1018.79 1018.90 1019.14 1019.26 1019.35 1019.49 1019.47 1019.46 1019.62 1019.92 1020.08 1020.26 1020.60 1021.10 1021.29 1021.59 1021.72
1008.02 1008.66 1009.35 1009.79 1010.26 1011.01 1011.46 1012.04 1012.26 1012.52 1012.72 1013.17 1013.45 1013.63 1013.84 1013.86 1014.24 1014.67 1015.10 1015.46 1015.97 1016.32 1016.74 1017.23 1017.55 1017.88 1018.36 1018.67 1018.63 1018.72 1019.17 1019.07 1019.01 1019.09 1019.22 1019.47 1019.78 1020.11 1020.24 1020.48 1020.84 1021.12 1021.41
1007.23 1007.88 1008.47 1009.04 1009.76 1010.43 1010.97 1011.46 1011.74 1012.06 1012.51 1012.62 1012.85 1013.17 1013.56 1013.56 1013.91 1014.29 1014.71 1015.03 1015.51 1015.99 1016.49 1016.83 1017.22 1017.47 1017.60 1018.19 1018.57 1018.47 1018.55 1018.50 1018.67 1019.00 1019.03 1019.11 1019.36 1019.56 1019.81 1019.88 1020.06 1020.37 1020.79
1006.46 1007.24 1007.78 1008.40 1009.15 1009.69 1010.28 1010.62 1011.17 1011.67 1011.91 1012.20 1012.53 1012.97 1013.42 1013.71 1013.70 1013.99 1014.33 1014.68 1015.24 1015.66 1015.96 1016.40 1016.76 1017.08 1017.27 1017.48 1017.67 1017.98 1018.36 1018.47 1018.49 1018.67 1018.78 1018.93 1019.18 1019.09 1019.11 1019.09 1019.34 1019.65 1020.04
1005.92 1006.52 1007.14 1007.74 1008.27 1008.82 1009.47 1009.95 1010.37 1010.86 1011.38 1011.98 1012.40 1012.80 1013.20 1013.52 1013.78 1013.76 1013.96 1014.22 1014.53 1015.08 1015.37 1015.79 1016.17 1016.51 1016.80 1017.02 1017.07 1017.28 1017.48 1017.95 1018.13 1018.30 1018.55 1018.59 1018.58 1018.43 1018.44 1018.57 1018.70 1019.01 1019.30
Thickness
5785 5783 5781 5778 5776 5774 5774 5771 5771 5770 5767 5765 5764 5763 5763 5763 5762 5761 5759 5759 5758 5757 5757 5755 5753 5750 5750 5751 5752 5751 5750 5751 5751 5752 5753 5752 5753 5753 5753 5752 5752 5752 5752
5794 5786 5783 5781 5779 5776 5775 5772 5771 5770 5767 5766 5765 5764 5764 5764 5763 5761 5761 5760 5759 5758 5757 5756 5754 5752 5752 5753 5751 5751 5751 5752 5752 5752 5751 5751 5752 5752 5753 5753 5752 5752 5751
5792 5788 5785 5783 5780 5778 5776 5773 5771 5770 5768 5766 5765 5765 5764 5764 5763 5762 5761 5759 5760 5759 5757 5756 5755 5755 5754 5753 5752 5751 5751 5751 5752 5753 5752 5752 5752 5752 5752 5752 5752 5752 5750
5792 5788 5786 5783 5781 5778 5776 5775 5772 5771 5770 5768 5766 5766 5765 5764 5763 5763 5761 5759 5759 5759 5760 5759 5758 5757 5756 5754 5753 5752 5751 5752 5752 5752 5752 5752 5752 5751 5751 5750 5750 5751 5750
5792 5787 5785 5783 5780 5778 5776 5774 5773 5772 5771 5770 5768 5767 5766 5765 5764 5763 5762 5761 5759 5759 5759 5759 5759 5758 5757 5755 5754 5753 5751 5751 5750 5750 5751 5752 5751 5751 5751 5750 5748 5749 5749
5791 5787 5785 5782 5779 5778 5776 5773 5772 5772 5771 5770 5769 5768 5767 5765 5763 5762 5762 5762 5760 5759 5759 5758 5759 5758 5756 5755 5754 5752 5751 5750 5748 5749 5750 5751 5751 5750 5751 5750 5749 5748 5748
5791 5788 5785 5782 5780 5779 5777 5775 5773 5772 5770 5770 5770 5768 5768 5766 5765 5763 5763 5763 5761 5759 5759 5759 5759 5758 5757 5756 5756 5753 5750 5751 5750 5749 5748 5749 5750 5750 5749 5749 5748 5747 5745
5792 5788 5785 5781 5780 5780 5779 5777 5775 5773 5771 5770 5770 5768 5768 5767 5766 5764 5764 5764 5762 5760 5760 5760 5761 5759 5757 5755 5753 5753 5753 5750 5749 5749 5750 5748 5747 5747 5748 5748 5746 5745 5744
5795 5790 5786 5783 5781 5781 5780 5778 5775 5773 5771 5770 5770 5769 5768 5767 5766 5764 5763 5763 5762 5760 5761 5762 5761 5760 5758 5755 5753 5753 5754 5752 5747 5747 5747 5749 5746 5744 5745 5745 5744 5743 5742
5794 5791 5789 5785 5783 5781 5780 5778 5776 5774 5772 5770 5770 5769 5768 5767 5766 5766 5764 5763 5762 5762 5760 5760 5759 5758 5757 5755 5754 5752 5751 5750 5747 5745 5745 5745 5744 5742 5742 5742 5740 5740 5740
5792 5790 5788 5788 5785 5782 5780 5779 5777 5775 5773 5771 5769 5769 5768 5767 5766 5767 5766 5765 5763 5762 5761 5759 5757 5758 5758 5757 5753 5752 5752 5750 5746 5744 5743 5743 5742 5741 5740 5738 5737 5736 5736
5789 5789 5789 5788 5786 5782 5780 5780 5778 5776 5774 5771 5770 5770 5770 5768 5767 5767 5767 5766 5764 5762 5761 5759 5756 5757 5755 5753 5752 5751 5751 5750 5746 5743 5741 5740 5739 5739 5738 5736 5733 5732 5732
5794 5791 5790 5789 5786 5782 5781 5779 5778 5776 5774 5771 5771 5772 5772 5770 5768 5767 5766 5765 5764 5763 5761 5758 5757 5758 5754 5752 5752 5749 5748 5746 5744 5742 5740 5738 5737 5737 5735 5733 5731 5729 5728
5794 5796 5793 5791 5787 5784 5781 5779 5778 5777 5776 5772 5771 5771 5772 5770 5770 5769 5767 5767 5764 5763 5761 5758 5755 5756 5754 5754 5752 5748 5746 5745 5740 5740 5740 5736 5734 5734 5733 5731 5728 5726 5724
5798 5797 5796 5793 5789 5788 5784 5781 5779 5778 5778 5777 5774 5773 5773 5772 5771 5772 5769 5768 5765 5763 5761 5758 5755 5753 5752 5751 5750 5749 5748 5747 5744 5740 5738 5736 5734 5733 5733 5730 5727 5725 5723
5805 5801 5799 5796 5793 5791 5788 5785 5783 5780 5781 5779 5777 5776 5776 5776 5776 5773 5771 5769 5767 5766 5765 5761 5758 5756 5751 5751 5751 5751 5748 5745 5741 5740 5737 5735 5733 5731 5731 5729 5726 5723 5722
5815 5807 5800 5798 5795 5794 5794 5790 5788 5785 5783 5783 5781 5779 5779 5778 5777 5775 5773 5771 5769 5770 5769 5763 5759 5757 5753 5751 5751 5751 5748 5744 5742 5740 5736 5734 5733 5731 5730 5730 5726 5723 5721
5813 5803 5799 5800 5799 5796 5794 5794 5793 5790 5786 5786 5786 5783 5782 5781 5780 5778 5773 5772 5772 5771 5771 5767 5762 5757 5754 5753 5751 5750 5748 5746 5744 5743 5739 5735 5733 5732 5731 5728 5726 5721 5722
5814 5805 5797 5798 5801 5799 5798 5795 5795 5793 5790 5790 5789 5787 5784 5782 5780 5777 5775 5774 5774 5771 5769 5766 5760 5757 5753 5752 5750 5749 5748 5746 5744 5742 5740 5737 5735 5733 5731 5727 5723 5722 5721
5816 5810 5803 5803 5804 5803 5801 5798 5795 5794 5793 5793 5791 5788 5785 5783 5781 5777 5775 5774 5773 5770 5767 5763 5760 5756 5755 5754 5751 5748 5747 5746 5745 5743 5741 5739 5737 5735 5732 5728 5726 5723 5722
5818 5812 5806 5802 5803 5801 5797 5793 5792 5790 5792 5792 5791 5790 5786 5784 5781 5778 5775 5773 5772 5769 5767 5763 5760 5758 5755 5755 5750 5748 5749 5748 5747 5746 5744 5741 5738 5737 5734 5730 5728 5725 5724
5822 5819 5812 5807 5804 5802 5799 5800 5798 5796 5795 5794 5793 5789 5786 5783 5781 5779 5777 5774 5771 5768 5766 5764 5763 5757 5755 5755 5749 5748 5740 5744 5746 5748 5746 5744 5742 5740 5737 5733 5731 5729 5728
5826 5822 5819 5816 5812 5807 5801 5797 5797 5796 5795 5792 5790 5788 5787 5786 5783 5780 5777 5775 5773 5771 5767 5764 5763 5760 5753 5754 5756 5750 5739 5739 5745 5749 5749 5747 5745 5742 5740 5738 5735 5733 5732
5834 5832 5828 5824 5817 5810 5806 5800 5799 5793 5790 5792 5792 5790 5788 5787 5784 5782 5778 5776 5773 5770 5766 5764 5762 5761 5760 5753 5753 5755 5753 5752 5743 5740 5747 5749 5748 5746 5744 5744 5742 5740 5738
5844 5837 5834 5827 5820 5814 5808 5806 5802 5796 5796 5795 5793 5788 5786 5784 5783 5781 5778 5775 5772 5769 5768 5765 5763 5761 5760 5757 5756 5753 5750 5750 5750 5745 5742 5745 5746 5749 5749 5749 5748 5746 5745
5849 5845 5839 5832 5827 5822 5815 5810 5806 5801 5797 5792 5790 5786 5785 5783 5780 5780 5778 5776 5774 5770 5768 5766 5765 5762 5760 5758 5758 5756 5753 5748 5747 5746 5745 5745 5747 5751 5754 5754 5752 5751 5750